www.pogodaiklimat.ru

Погода и климат >> Архив погоды >> Кот-д'Ивуар >> Ямусукро


ПОГОДА в Ямусукро

  • Прогноз погоды в Ямусукро
  • Монитор погоды в Ямусукро

АРХИВ ПОГОДЫ в Ямусукро

Время (UTC), дата Ветер
(напр.,м/с)
 
Видим.   Явления Облачность Т
(С)
Тd
(С)
f
(%)
Тe
(С)
Тes
(С)
Комфортность P
(гПа)
Po
(гПа)
Тmin
(С)
Tmax
(С)
R
(мм)
R24
(мм)
S
(см)
21 8.09 ЮЗ 2 10 км 9/4 300 м
[Sc Ci sp]
+23.9 +22.7 93 +31 +31 очень
душно
1014.1 991.0
00 9.09 ЮЗ 2 8000 м 9/9 300 м
[Sc]
+23.0 +22.7 98 +32 +32 очень
душно
1015.0 991.8
03 9.09 З 2 8000 м 9/9 300 м
[Sc]
+22.8 +22.6 99 +31 +31 очень
душно
1012.9 989.8
06 9.09 ЮЗ 2 8000 м 9/9 300 м
[Sc]
+22.7 +22.5 99 +31 +31 очень
душно
1013.5 990.3 +22.4
09 9.09 ЮЗ 2 10 км 10/10 300 м
[Cu med, cong]
+24.6 +23.2 92 +33 +33 очень
душно
1015.0 992.0
15 9.09 СЗ 2 10 км 8/8 450 м
[Cu med, cong Ac trans]
+30.6 +22.8 63 +40 +43 очень
душно
1009.8 987.3
18 9.09 штиль 0 10 км гроза без осадков 5/3 450 м
[Cb cap Ci ing]
+28.7 +24.2 77 +40 +40 очень
душно
1010.3 987.7 +31.4
21 9.09 ЮЗ 2 8000 м ледяной дождь (гололёд) {морось, гроза} 9/6 400 м
[Cb cap Ac As]
+25.2 +23.6 91 +34 +34 очень
душно
1013.0 990.1
00 10.09 Ю 4 10 км {гроза, дождь} 9/5 300 м
[Sc Ac As]
+23.5 +23.0 97 +31 +31 очень
душно
1013.3 990.2 2
03 10.09 ЮЗ 2 10 км 10/10 300 м
[Sc]
+23.5 +23.3 99 +32 +32 очень
душно
1012.3 989.4
06 10.09 З 2 8000 м {дождь} 10/10 300 м
[Sc]
+23.2 +23.1 99 +32 +32 очень
душно
1012.4 989.4 +23.0 2
09 10.09 Ю 2 10 км в посл. час дождь 10/5 150 м
[Sc]
+24.0 +23.1 95 +32 +34 очень
душно
1014.8 991.7
12 10.09 ЮЗ 3 10 км {дождь} 10/6 400 м
[Cu med, cong Ac As]
+26.7 +23.2 81 +36 +38 очень
душно
1013.1 990.3 0.3
15 10.09 ЮЗ 3 10 км 6/5 450 м
[Cu med, cong Ci sp]
+30.4 +24.1 69 +42 +47 опасность
перегрева
1009.2 986.7
18 10.09 СЗ 2 10 км 6/5 400 м
[Cu med, cong Ci sp]
+27.4 +24.1 82 +38 +38 очень
душно
1009.4 986.7 +32.3 0.3
21 10.09 СВ 3 10 км в посл. час гроза 9/5 300 м
[Sc Ac As]
+24.8 +23.4 92 +33 +33 очень
душно
1011.6 988.7
00 11.09 ЮЗ 2 8000 м в посл. час гроза {дождь} 10/10 300 м
[Sc]
+23.8 +23.6 99 +32 +32 очень
душно
1012.2 989.2 6
03 11.09 ЮЗ 2 8000 м 10/10 300 м
[Sc]
+23.3 +23.1 99 +33 +33 очень
душно
1010.4 987.4
06 11.09 ЮЗ 3 8000 м 9/9 300 м
[Sc]
+23.0 +22.5 97 +32 +32 очень
душно
1011.7 988.6 +22.6 8
09 11.09 ЮЗ 0 10 км {морось} 9/9 400 м
[Cu med, cong]
+25.0 +23.3 90 +33 +33 очень
душно
1014.1 983.1
12 11.09 штиль 0 10 км 9/9 400 м
[Cu med, cong]
+28.5 +23.9 76 +39 +42 очень
душно
1012.2 989.5
15 11.09 ЮЗ 3 10 км 6/5 450 м
[Cu med, cong Ac trans]
+30.6 +23.8 67 +42 +47 опасность
перегрева
1008.9 986.5
18 11.09 штиль 0 10 км 5/4 450 м
[Cb cap]
+27.5 +23.7 80 +38 +38 очень
душно
1009.2 986.5 +32.7
21 11.09 штиль 0 10 км 3/3 400 м
[Cb cap]
+24.1 +23.6 97 +33 +33 очень
душно
1010.7 987.7
00 12.09 штиль 0 10 км 9/9 300 м
[Sc]
+24.8 +24.3 97 +34 +34 очень
душно
1011.8 988.9
06 12.09 штиль 0 10 км 10/10 300 м
[Sc]
+23.2 +22.9 98 +32 +32 очень
душно
1010.9 987.8 +22.8
09 12.09 ЮЗ 3 10 км в посл. час туман 9/9 300 м
[Cu med, cong]
+24.8 +23.8 94 +34 +34 очень
душно
1012.7 989.7
12 12.09 СЗ 2 10 км {туман} 9/8 400 м
[Frnb]
+29.1 +23.3 71 +39 +43 очень
душно
1011.1 988.5
15 12.09 СЗ 2 10 км 8/6 450 м
[Cu med, cong Ci sp]
+29.4 +24.1 73 +41 +46 опасность
перегрева
1008.5 986.0
03 15.09 штиль 0 8000 м 9/3 300 м
[Sc Ac As]
+23.6 +23.3 98 +32 +32 очень
душно
1010.8 987.8
06 15.09 штиль 0 6000 м 9/3 300 м
[Sc Ac As]
+22.9 +22.7 99 +31 +31 очень
душно
1011.7 988.6 +22.6 3
09 15.09 ЮЗ 3 10 км 9/9 300 м
[Cu med, cong]
+25.8 +23.8 89 +35 +36 очень
душно
1012.3 989.4
15 15.09 штиль 0 10 км 9/5 450 м
[Cu med, cong Ac As]
+29.8 +23.7 70 +41 +45 опасность
перегрева
1008.5 986.0
18 15.09 СВ 6 10 км 8/6 400 м
[Cb cap Ac As]
+28.2 +22.9 73 +38 +38 очень
душно
1008.4 985.8 +32.5

 

Местоположение метеостанции Ямусукро (Кот-д'Ивуар): широта 6.90 долгота -5.35 высота над уровнем моря 213 м.

В архиве по умолчанию представлена погода в Ямусукро за последнюю неделю. Архивные данные за месяц целиком и за предыдущие месяцы, начиная с января 2011 года, Вы можете получить, выбрав интересующий диапазон дат из раскрывающегося списка и нажав кнопку "Ввод!".


*Определитесь, кто Вы:
робот инопланетянин человек

Внимание! Время в таблицах - всемирное. Для получения местного времени необходимо прибавить поправку, которая равна 0 ч.

Смотрите также архив погоды в соседних городах и на ближайших метеорологических станциях:

Погода в Димбокро (Кот-д'Ивуар) (77 км)
Погода в Буаке (Кот-д'Ивуар) (98 км)
Погода в Ганьоа (Кот-д'Ивуар) (108 км)
Погода в Далоа (Кот-д'Ивуар) (124 км)
Погода в Сассандре (Кот-д'Ивуар) (231 км)
Погода в Абиджане (Кот-д'Ивуар) (242 км)
Погода в Мане (Кот-д'Ивуар) (245 км)
Погода в Сан-Педро (Кот-д'Ивуар) (279 км)
Погода в Корого (Кот-д'Ивуар) (282 км)
Погода в Адиаке (Кот-д'Ивуар) (288 км)

Пояснения к столбцам:

Ветер - указаны скорость ветра в м/с - средняя за 10 мин, порывы в срок и между сроками (в фигурных скобках) и направление, откуда дует ветер: С - северный, СВ - северо-восточный, В - восточный, ЮВ - юго-восточный, Ю - южный, ЮЗ - юго-западный, З - западный, СЗ - северо-западный.
Видимость - горизонтальная дальность видимости в метрах или километрах. При видимости от 1 до 10 км при отсутствии осадков обычно наблюдается дымка, при ухудшении видимости до 1 км и менее - туман. В сухую погоду видимость может ухудшаться дымом, пылью или мглою.
Явления - указаны атмосферные явления, наблюдавшиеся в срок или в последний час перед сроком; фигурными скобками обозначены явления, наблюдавшиеся между сроками (за 1-3 часа до срока); квадратными скобками обозначены град или гололедные отложения с указанием их диаметра в мм.
Облачность - указаны через наклонную черту общая и нижняя облачность в баллах и высота нижней границы облаков в метрах; квадратными скобками обозначены формы облаков: Ci - перистые, Cs - перисто-слоистые, Cc - перисто-кучевые, Ac - высококучевые, As - высокослоистые, Sc - слоисто-кучевые, Ns - слоисто-дождевые, Cu - кучевые, Cb - кучево-дождевые. Подробнее классификацию облаков см. в Атласе облаков (PDF).
T - Температура воздуха - температура, измеренная на высоте 2 м над землей.
Td - Температура точки росы - температура, при понижении до которой содержащийся в воздухе водяной пар достигнет насыщения.
f - Относительная влажность воздуха - влажноcть воздуха, измеренная на высоте 2 м над землей.
Te - Эффективная температура - температура, которую ощущает одетый по сезону человек в тени. Характеристика душности погоды. При расчете учитывается влияние влажности воздуха и скорости ветра на теплоощущения человека.
Tes - Эффективная температура на солнце - температура, которую ощущает человек, с поправкой на солнечный нагрев. Характеристика знойности погоды. Зависит от высоты солнца над горизонтом, облачности и скорости ветра. Ночью, в пасмурную погоду, а также при ветре 12 м/с и более поправка равна нулю.
P - Атмосферное давление - приведенное к уровню моря атмосферное давление.
Po - Атмосферное давление - измеренное на уровне метеостанции атмосферное давление.
Tmin - Минимальная температура - минимум температуры воздуха на высоте 2 м над землей.
Tmax - Максимальная температура - максимум температуры воздуха на высоте 2 м над землей.
R - Количество осадков - Количество выпавших осадков за период времени, мм. При наведении курсора мыши на число - период времени, за который выпало указанное количество осадков.
R24 - Количество осадков - Количество выпавших осадков за 24 часа, мм.
S - Снежный покров - Высота снежного покрова, см. При наведении курсора мыши на число - состояние снежного покрова и степень покрытия местности в баллах.